Temperature
7 7 7 7 7 7 7 7 7 7 7 7 7 7 7 7 7 7 7 7 7 7 7 7 7 7 7 7 7 7 6 6 6 6 6 6 6 6 6 6 6 6 6
7 7 7 7 7 7 7 7 7 7 7 7 7 6 6 6 7 7 7 7 7 7 7 7 7 7 7 7 7 6 6 6 6 6 6 6 6 5 5 5 5 5 5
6 6 6 6 6 6 6 6 6 6 6 6 6 6 6 6 6 6 6 6 6 6 6 6 6 6 6 6 6 6 6 6 5 5 5 5 5 5 5 5 5 5 5
6 6 6 6 6 6 6 6 6 6 5 5 6 5 5 5 6 6 6 6 5 5 6 6 6 6 6 6 5 5 5 5 5 5 5 5 5 4 4 4 5 5 4
6 6 5 5 5 5 5 5 5 5 5 5 5 5 5 5 5 5 5 5 5 5 5 5 5 5 5 5 5 5 5 5 4 4 4 4 4 4 4 4 4 4 4
5 5 5 5 5 5 5 5 5 5 5 5 5 5 5 4 4 4 4 4 4 4 4 4 4 4 4 4 5 4 4 4 4 4 4 3 3 3 3 3 3 3 3
4 4 4 4 4 4 4 4 4 4 4 4 4 4 4 4 4 4 4 4 4 4 4 4 4 4 4 4 4 4 4 4 4 3 3 3 3 3 3 3 2 2 2
4 4 4 3 3 3 3 3 3 3 3 3 3 3 3 3 3 3 3 3 3 3 3 3 3 3 3 3 3 3 3 3 3 3 3 3 2 2 2 2 2 2 2
3 3 3 3 3 3 3 3 3 3 3 3 3 3 3 2 2 3 3 3 3 3 3 3 3 3 3 3 3 3 3 3 3 2 2 2 2 2 2 1 1 1 1
2 2 2 2 2 2 2 2 2 2 2 2 2 2 2 2 2 2 2 2 2 2 2 2 2 2 2 2 2 2 2 2 2 2 2 2 1 1 1 1 1 0 0
2 2 2 1 1 1 1 1 1 1 1 1 2 2 1 1 1 1 1 1 1 1 1 2 2 2 2 2 2 1 1 1 1 1 1 1 1 1 1 1 0 0 -0
1 1 1 1 1 1 1 1 1 1 1 1 1 1 1 1 1 1 1 1 1 1 1 1 1 1 1 1 1 1 1 1 1 1 1 1 0 0 0 0 -0 -0 -1
0 0 0 0 0 0 0 0 0 0 0 0 0 0 0 0 0 0 0 -0 -0 -0 -0 -0 -0 0 0 0 0 -0 -0 -0 -0 -0 -0 -0 -0 -0 -0 -1 -1 -1 -1
-0 -0 -0 -0 -0 -0 -0 -0 -0 -0 -0 -0 -0 -0 -0 -0 -0 -0 -0 -0 -1 -1 -1 -1 -1 -1 -1 -1 -1 -1 -1 -1 -1 -1 -1 -1 -1 -1 -1 -1 -1 -1 -1
-1 -1 -1 -1 -1 -1 -1 -1 -1 -1 -1 -1 -1 -1 -1 -1 -1 -1 -1 -1 -1 -1 -1 -1 -1 -1 -1 -1 -1 -1 -1 -1 -1 -1 -1 -1 -2 -2 -2 -2 -2 -2 -2
-1 -1 -1 -1 -1 -1 -1 -1 -1 -2 -2 -1 -1 -1 -1 -1 -1 -2 -2 -2 -2 -2 -2 -2 -2 -2 -2 -2 -2 -2 -2 -2 -2 -2 -2 -2 -2 -2 -2 -2 -3 -3 -3
-2 -2 -2 -2 -2 -2 -2 -2 -2 -2 -2 -2 -2 -2 -2 -2 -2 -2 -2 -2 -2 -2 -2 -2 -2 -2 -3 -2 -2 -3 -3 -3 -3 -3 -3 -3 -3 -3 -3 -3 -3 -3 -3
-2 -2 -2 -2 -2 -2 -2 -2 -2 -2 -2 -2 -2 -2 -2 -2 -2 -2 -3 -3 -3 -3 -3 -3 -3 -3 -3 -3 -3 -3 -3 -3 -3 -3 -3 -3 -3 -3 -3 -3 -3 -3 -4
-3 -3 -3 -3 -3 -3 -3 -3 -3 -3 -3 -3 -3 -3 -3 -3 -3 -3 -3 -3 -3 -3 -4 -4 -4 -4 -4 -4 -4 -4 -4 -4 -4 -4 -4 -4 -4 -4 -4 -4 -4 -4 -4
-3 -3 -3 -3 -3 -3 -3 -4 -4 -4 -4 -4 -4 -4 -4 -4 -4 -4 -4 -4 -4 -4 -4 -4 -4 -4 -4 -4 -4 -4 -4 -4 -4 -4 -4 -4 -4 -4 -4 -4 -4 -4 -4
-3 -3 -4 -4 -4 -4 -4 -4 -4 -4 -4 -4 -4 -4 -4 -5 -4 -4 -4 -4 -4 -4 -5 -5 -5 -5 -5 -5 -5 -4 -4 -4 -4 -4 -4 -4 -4 -5 -5 -5 -5 -4 -4
-4 -4 -4 -4 -4 -4 -4 -4 -5 -5 -5 -5 -5 -5 -5 -5 -5 -5 -5 -5 -5 -5 -5 -5 -5 -5 -5 -5 -5 -5 -5 -5 -4 -4 -4 -5 -5 -5 -5 -5 -5 -5 -5
-4 -4 -4 -4 -5 -5 -5 -5 -5 -5 -5 -5 -5 -5 -5 -5 -5 -5 -5 -5 -5 -5 -5 -5 -5 -5 -5 -5 -5 -5 -5 -5 -5 -5 -5 -5 -5 -5 -5 -5 -5 -5 -5
-5 -5 -5 -5 -5 -5 -5 -5 -6 -6 -6 -6 -6 -6 -6 -6 -6 -6 -6 -6 -6 -6 -6 -6 -6 -6 -6 -6 -5 -5 -5 -5 -5 -5 -5 -5 -5 -5 -5 -5 -5 -5 -5
-5 -5 -6 -6 -6 -6 -6 -6 -6 -6 -6 -6 -6 -6 -6 -6 -6 -6 -6 -6 -6 -6 -6 -6 -6 -6 -6 -6 -6 -5 -5 -5 -5 -5 -5 -5 -5 -5 -5 -5 -5 -5 -6
-6 -6 -6 -6 -6 -6 -6 -6 -6 -6 -6 -6 -6 -6 -6 -6 -6 -6 -6 -6 -6 -6 -6 -6 -6 -6 -6 -6 -6 -5 -5 -5 -5 -5 -6 -6 -6 -6 -6 -6 -5 -6 -6
Wind_Speed
1 1 1 1 1 1 1 1 1 0 1 1 1 1 1 1 1 2 1 2 2 2 2 3 3 3 3 3 3 2 3 3 4 3 2 1 1 2 3 5 5 5 6
1 1 1 1 1 1 1 1 1 1 1 1 1 1 1 1 2 2 2 2 3 3 3 3 3 2 3 3 3 3 3 3 3 4 2 1 2 2 2 2 4 4 5
1 1 1 0 1 1 1 1 1 1 1 1 1 2 2 2 2 2 3 2 3 3 4 4 4 3 3 3 4 3 3 2 2 3 3 2 2 2 2 2 3 3 5
1 2 1 2 2 2 1 1 1 1 1 1 1 2 2 2 3 3 3 3 3 3 4 4 4 5 5 5 4 4 3 3 2 3 3 2 2 2 1 2 3 3 3
1 2 2 2 2 1 1 1 1 1 1 1 1 2 2 2 3 3 3 3 3 3 4 4 4 5 6 5 4 4 4 4 3 3 3 2 2 2 3 2 3 4 3
1 2 2 1 1 1 1 1 1 1 1 1 2 2 2 2 3 4 3 3 4 4 4 4 4 5 5 6 6 6 6 6 5 4 3 4 4 4 3 2 2 3 3
2 2 2 2 1 2 1 1 1 1 1 1 2 2 3 3 3 3 3 3 4 4 4 4 4 4 5 4 5 6 6 8 8 6 6 6 5 5 3 3 3 4 5
1 2 2 2 2 1 1 1 2 2 1 2 2 3 3 4 4 4 3 2 3 4 5 5 5 5 5 5 4 4 4 5 6 5 6 6 6 5 6 5 4 3 3
2 2 2 2 2 2 2 3 2 2 2 2 2 3 4 4 4 4 3 2 3 4 4 5 5 6 7 7 5 5 4 4 5 6 7 7 8 8 5 2 2 2 4
3 3 2 2 3 3 4 3 2 2 3 3 3 3 4 4 5 5 4 2 3 3 3 4 6 7 8 8 6 5 6 5 3 2 3 4 4 6 7 5 5 4 3
2 2 2 2 2 3 3 3 3 2 2 3 3 3 3 4 5 5 5 3 4 3 3 3 4 7 9 9 8 7 8 6 4 4 3 3 3 3 4 4 5 5 4
2 2 2 2 2 2 2 2 2 2 2 3 3 3 3 3 4 5 7 6 5 4 4 4 5 7 8 9 8 8 8 6 3 3 3 4 4 4 4 4 4 5 6
2 2 2 2 1 1 2 2 2 2 2 2 2 3 4 3 4 6 6 6 6 4 4 6 7 8 7 6 7 8 7 4 4 4 5 5 4 4 3 2 3 3 4
2 3 2 1 1 1 1 2 2 3 3 3 4 4 4 4 3 3 3 4 4 4 4 5 7 7 5 5 5 5 4 5 5 5 5 4 3 3 3 3 3 3 3
2 2 2 2 2 2 2 3 3 4 5 5 5 4 4 5 6 7 5 4 4 4 3 3 3 3 3 3 3 3 3 3 4 4 4 4 4 4 4 3 3 3 4
2 2 2 2 2 2 2 3 5 6 7 8 8 7 6 8 9 10 10 10 9 8 5 4 5 4 5 5 5 4 4 5 5 4 5 5 5 5 5 4 3 4 5
3 3 3 2 2 2 2 3 4 4 5 7 8 8 8 9 9 10 10 10 9 8 6 5 5 6 6 6 6 5 5 5 5 5 6 6 5 5 5 5 5 5 6
3 4 4 3 3 3 3 3 3 4 4 4 5 8 9 9 9 9 8 7 5 5 5 6 6 6 6 6 6 6 5 5 5 5 6 6 6 6 6 6 6 6 6
3 3 3 3 3 3 3 3 4 4 5 5 4 5 7 7 8 8 7 4 5 5 5 6 6 6 6 6 6 6 6 6 6 5 6 6 6 6 7 7 7 8 7
3 5 5 3 3 3 3 3 4 4 5 5 5 5 4 4 4 5 5 5 6 6 6 6 6 6 6 6 6 6 6 6 6 6 6 6 6 6 7 8 7 7 7
3 4 5 4 3 4 4 4 5 5 5 6 6 7 8 5 6 6 6 6 6 7 7 6 6 6 6 6 6 6 7 7 7 7 7 6 6 7 7 7 7 7 6
3 4 4 4 4 4 5 5 5 5 6 7 6 7 11 7 6 7 7 7 7 7 6 6 6 6 6 6 7 7 7 7 7 7 7 7 7 7 6 7 7 6 6
4 4 4 4 4 6 6 5 5 5 6 6 7 6 6 6 6 7 7 7 7 7 6 6 7 7 7 7 7 7 8 8 7 7 7 7 7 6 6 6 7 6 6
4 4 5 5 4 4 5 5 5 6 6 6 7 7 7 7 7 8 7 7 6 7 6 7 8 9 10 8 8 9 9 9 9 8 8 8 7 7 6 6 7 7 6
4 4 4 5 5 5 5 6 6 6 6 7 7 7 7 7 7 7 7 6 7 7 8 8 7 8 10 11 10 10 12 14 12 9 8 7 7 7 7 7 6 6 6
4 4 5 4 5 5 5 6 6 6 6 7 7 7 7 7 7 7 6 6 6 7 7 7 8 9 10 10 11 13 14 14 14 13 9 6 7 7 7 6 7 6 6
Wind_Direction
132 134 124 129 133 129 150 192 179 167 175 170 176 164 166 163 162 153 162 170 176 188 190 196 213 194 192 195 190 191 196 194 235 265 255 268 254 271 307 312 314 311 312
167 148 142 125 113 127 187 226 179 195 218 200 182 173 191 186 184 176 184 183 193 201 200 196 220 200 199 199 192 198 202 199 210 249 279 282 268 260 275 293 308 307 305
167 149 143 155 173 209 232 233 184 184 214 208 180 194 207 205 198 198 196 197 206 215 209 205 217 199 208 206 197 200 204 206 200 221 261 274 281 273 291 296 295 300 308
178 167 185 214 216 222 230 233 218 199 196 216 216 218 217 216 209 204 199 203 211 223 222 216 217 210 212 209 203 204 200 198 197 210 247 263 272 276 266 285 302 303 302
182 193 213 219 213 207 211 239 235 208 209 217 222 230 221 216 217 206 199 204 213 226 231 222 220 223 220 218 211 204 196 201 204 218 243 265 268 261 257 258 279 300 293
202 227 226 211 201 201 210 214 209 215 216 202 223 222 223 236 244 231 214 209 217 223 232 233 230 232 237 241 233 218 205 203 208 216 238 244 250 246 248 252 273 296 290
203 218 219 209 207 222 215 200 223 233 238 236 231 227 231 245 263 258 242 217 220 228 231 233 243 241 238 229 239 238 231 230 222 213 224 234 234 229 224 245 248 255 263
217 228 222 207 213 223 217 234 245 242 243 240 240 237 238 255 267 266 262 228 225 234 233 229 229 239 232 226 224 230 232 236 235 226 220 227 230 223 214 223 239 263 278
253 253 241 213 211 221 232 243 246 240 252 245 237 234 237 256 267 265 266 232 237 245 240 232 229 231 242 240 226 231 245 254 259 251 248 245 245 243 230 203 219 255 280
258 259 248 220 211 222 230 238 242 242 252 256 247 243 236 243 259 266 265 231 240 253 254 248 246 245 245 243 225 222 238 246 235 254 259 256 246 239 237 218 209 227 257
274 279 263 241 229 231 232 233 230 236 252 262 256 257 246 248 257 262 264 239 229 241 252 258 256 261 254 248 240 227 238 240 220 219 233 239 235 231 230 226 217 214 232
287 284 271 260 251 245 226 237 227 216 238 262 264 274 265 260 260 261 266 264 254 239 249 252 254 262 266 261 251 241 243 243 218 219 230 239 240 243 238 230 230 229 232
291 284 272 269 257 242 227 237 244 227 232 251 250 261 270 260 256 266 273 272 268 259 252 260 266 268 269 266 256 250 241 225 215 228 237 243 238 232 229 240 249 241 246
286 289 280 269 280 275 255 235 237 239 242 247 246 249 257 257 250 247 249 257 266 269 265 268 275 276 271 263 261 254 236 224 223 228 237 241 236 225 230 232 244 244 259
282 286 285 270 257 268 265 242 236 240 234 235 238 236 241 254 254 257 259 253 243 247 263 266 265 265 256 254 256 249 238 233 237 230 232 239 239 239 244 231 230 235 248
271 280 276 265 257 259 272 288 262 251 262 257 250 248 251 254 264 268 271 272 273 271 272 258 257 255 254 250 249 251 245 240 239 238 236 237 238 239 244 239 235 241 252
252 265 265 256 251 252 255 263 285 292 276 271 266 264 264 266 269 272 272 271 269 270 263 253 251 251 253 250 245 245 249 246 235 232 236 236 234 237 238 239 239 247 251
255 258 256 253 251 249 250 253 257 272 288 290 282 274 272 272 274 275 275 277 269 262 248 250 251 250 252 251 248 246 247 244 238 236 235 234 232 235 237 238 237 242 249
264 264 260 256 255 255 256 256 257 260 267 277 286 289 282 279 279 274 271 254 254 256 253 254 252 250 252 253 251 246 243 241 237 234 236 234 233 234 240 240 240 241 243
265 268 268 260 260 262 260 260 261 261 264 267 270 272 276 274 269 266 253 244 247 255 257 257 256 252 250 253 251 245 243 241 238 237 238 237 234 234 238 239 239 240 242
260 268 269 264 259 259 260 260 261 262 263 266 267 268 269 264 262 261 258 252 249 252 255 256 257 255 251 249 249 246 242 244 242 239 237 236 234 238 238 238 239 240 239
253 256 259 258 262 262 264 260 261 263 264 267 272 276 276 268 263 263 261 259 253 250 248 250 253 251 248 244 243 244 244 244 240 237 238 238 236 237 237 239 239 236 232
253 257 264 266 267 271 275 268 264 265 267 268 272 274 272 266 264 263 262 261 258 255 251 249 253 254 251 246 241 238 239 241 238 235 237 238 235 235 236 238 236 235 233
251 254 261 267 268 267 268 269 269 268 269 271 272 272 271 269 269 269 268 266 262 259 255 252 252 253 253 253 249 243 240 240 238 236 235 235 235 236 236 235 234 231 230
250 255 259 262 265 267 269 271 271 271 272 274 274 275 275 275 274 274 272 269 267 265 261 256 254 253 253 252 252 249 247 245 244 240 234 234 234 233 233 234 231 226 228
254 257 260 261 262 264 267 271 272 273 273 275 276 276 276 277 277 276 274 271 270 268 267 263 256 254 255 256 256 254 253 253 250 245 238 233 232 231 226 227 222 221 221
Height
1468 1470 1471 1472 1473 1474 1475 1475 1476 1477 1478 1478 1479 1480 1481 1482 1483 1483 1484 1485 1486 1487 1489 1490 1491 1492 1493 1495 1496 1496 1497 1497 1496 1496 1497 1497 1497 1497 1497 1497 1496 1495 1495
1467 1468 1469 1470 1471 1471 1472 1473 1473 1474 1474 1475 1475 1476 1477 1478 1479 1480 1481 1481 1482 1483 1485 1486 1486 1487 1489 1490 1491 1491 1492 1492 1492 1491 1492 1493 1493 1493 1493 1492 1492 1491 1490
1465 1466 1466 1467 1468 1469 1469 1470 1470 1471 1471 1472 1473 1473 1474 1475 1476 1476 1477 1478 1478 1479 1480 1481 1482 1483 1484 1485 1486 1486 1487 1488 1488 1488 1487 1488 1488 1488 1488 1488 1487 1487 1486
1462 1463 1464 1464 1465 1466 1466 1467 1467 1468 1468 1468 1469 1470 1470 1471 1472 1472 1473 1473 1474 1475 1476 1477 1478 1478 1479 1480 1480 1481 1482 1483 1483 1483 1483 1483 1483 1483 1483 1482 1482 1482 1481
1459 1460 1461 1461 1462 1462 1462 1463 1463 1464 1464 1464 1465 1465 1466 1467 1467 1468 1468 1469 1470 1471 1472 1472 1473 1474 1474 1475 1476 1476 1477 1478 1478 1478 1478 1478 1478 1478 1478 1478 1477 1476 1476
1456 1457 1457 1458 1458 1458 1459 1459 1459 1459 1460 1460 1460 1461 1461 1462 1463 1463 1464 1464 1465 1466 1467 1467 1468 1469 1470 1470 1471 1471 1472 1472 1473 1473 1473 1473 1473 1474 1474 1473 1472 1471 1470
1452 1453 1453 1454 1454 1454 1455 1455 1455 1455 1455 1455 1456 1456 1456 1457 1458 1459 1460 1460 1460 1461 1461 1462 1463 1464 1465 1465 1465 1466 1467 1467 1468 1469 1468 1468 1469 1469 1469 1468 1468 1467 1466
1448 1449 1449 1449 1449 1450 1450 1450 1451 1451 1451 1451 1451 1451 1452 1453 1454 1454 1455 1455 1456 1456 1456 1457 1458 1458 1459 1460 1460 1460 1461 1462 1462 1463 1463 1463 1464 1464 1464 1464 1463 1462 1461
1444 1444 1445 1445 1445 1446 1446 1446 1446 1446 1446 1446 1447 1447 1448 1448 1450 1450 1450 1451 1451 1451 1451 1452 1452 1453 1454 1454 1454 1454 1455 1456 1457 1457 1457 1458 1458 1458 1458 1458 1457 1456 1454
1440 1441 1441 1441 1442 1442 1442 1442 1442 1442 1442 1442 1442 1443 1443 1444 1445 1445 1446 1446 1445 1445 1446 1446 1447 1447 1448 1448 1449 1449 1448 1449 1450 1450 1451 1451 1452 1452 1452 1452 1452 1451 1449
1437 1437 1437 1437 1438 1438 1438 1438 1438 1438 1438 1438 1438 1438 1439 1439 1440 1440 1441 1441 1440 1440 1440 1440 1441 1441 1442 1442 1443 1443 1442 1443 1443 1444 1444 1445 1445 1445 1446 1446 1446 1445 1444
1433 1433 1433 1433 1433 1433 1433 1433 1433 1433 1433 1433 1433 1433 1434 1435 1435 1435 1436 1436 1436 1436 1435 1435 1435 1435 1436 1436 1436 1437 1437 1437 1437 1437 1438 1438 1438 1439 1439 1439 1439 1439 1439
1429 1429 1429 1429 1429 1429 1429 1429 1429 1429 1429 1429 1429 1429 1430 1430 1431 1431 1431 1431 1431 1431 1430 1430 1430 1430 1430 1430 1430 1431 1431 1431 1431 1431 1431 1431 1432 1432 1433 1433 1433 1433 1432
1426 1426 1425 1425 1426 1426 1426 1426 1426 1426 1425 1425 1425 1425 1425 1425 1426 1426 1426 1426 1426 1426 1425 1425 1425 1425 1424 1424 1424 1425 1425 1425 1424 1425 1425 1425 1426 1426 1426 1426 1426 1426 1425
1423 1423 1422 1422 1422 1422 1422 1422 1422 1422 1422 1421 1421 1420 1420 1420 1420 1421 1421 1420 1420 1420 1420 1419 1419 1418 1418 1418 1418 1418 1419 1419 1418 1418 1418 1418 1419 1419 1419 1420 1420 1419 1419
1420 1419 1419 1419 1419 1418 1418 1418 1417 1418 1417 1417 1416 1416 1415 1415 1415 1415 1415 1415 1415 1415 1414 1413 1412 1412 1412 1412 1412 1412 1412 1413 1413 1412 1412 1412 1413 1413 1413 1414 1414 1413 1413
1417 1416 1415 1415 1415 1414 1414 1413 1412 1412 1412 1412 1411 1411 1411 1410 1410 1410 1409 1409 1409 1409 1408 1407 1406 1406 1406 1406 1406 1406 1406 1406 1406 1406 1406 1406 1406 1407 1407 1407 1407 1407 1407
1413 1412 1412 1411 1411 1410 1410 1409 1408 1407 1406 1405 1406 1406 1405 1405 1405 1404 1404 1403 1402 1402 1401 1401 1400 1400 1400 1400 1400 1400 1399 1399 1400 1400 1400 1400 1400 1400 1400 1400 1401 1401 1401
1409 1408 1407 1407 1406 1406 1405 1405 1404 1403 1402 1401 1400 1400 1400 1399 1399 1399 1398 1397 1396 1395 1395 1395 1394 1394 1394 1394 1394 1393 1393 1393 1393 1393 1393 1393 1393 1394 1394 1394 1394 1394 1395
1404 1404 1403 1402 1402 1401 1400 1400 1399 1398 1397 1396 1395 1394 1394 1394 1393 1392 1392 1391 1390 1389 1389 1388 1388 1388 1388 1387 1387 1387 1386 1386 1386 1386 1386 1386 1387 1387 1387 1387 1387 1388 1388
1400 1399 1399 1398 1397 1396 1396 1395 1394 1393 1392 1391 1390 1389 1389 1388 1387 1386 1385 1385 1384 1383 1383 1382 1382 1381 1381 1381 1380 1380 1380 1380 1380 1380 1380 1380 1380 1380 1380 1381 1381 1381 1381
1396 1395 1394 1393 1392 1391 1391 1390 1389 1388 1386 1385 1384 1384 1383 1382 1381 1380 1379 1378 1377 1377 1376 1376 1375 1375 1374 1374 1374 1373 1373 1373 1373 1373 1373 1373 1373 1374 1374 1374 1374 1375 1375
1391 1390 1389 1388 1387 1386 1385 1384 1383 1382 1381 1380 1379 1378 1377 1376 1375 1373 1372 1371 1371 1370 1370 1369 1368 1368 1367 1367 1367 1367 1367 1367 1367 1367 1367 1367 1367 1367 1368 1368 1368 1369 1369
1386 1385 1384 1383 1382 1381 1380 1379 1378 1377 1376 1375 1374 1372 1371 1370 1369 1367 1366 1365 1364 1363 1363 1362 1361 1361 1360 1360 1360 1360 1360 1360 1360 1360 1361 1361 1361 1361 1361 1362 1362 1363 1364
1380 1380 1379 1378 1377 1376 1375 1374 1373 1372 1371 1369 1368 1367 1365 1364 1362 1361 1360 1359 1358 1357 1356 1355 1355 1354 1354 1353 1353 1353 1353 1354 1354 1354 1354 1354 1354 1354 1355 1356 1357 1358 1358
1375 1374 1374 1373 1372 1371 1370 1369 1368 1366 1365 1364 1362 1361 1359 1358 1356 1355 1354 1353 1352 1350 1349 1349 1348 1347 1347 1347 1347 1347 1347 1347 1347 1348 1348 1348 1348 1349 1350 1350 1351 1352 1353